Wetterdaten: Woche 30.01.17 - 05.02.17 (KW5)
Datum Zeit Temp. I. Temp. A. Feuchte I. Feuchte A. Luftdruck Regen Wind Richtung Sonnenschein UV Solar Taupunkt Windchill Windben
30.01.2017 00:00 22,5 C -9,2 C 48 % 88 % 1025,9 hPa 0,0 l/m 0,2 km/h (0 Bft) O-SO 0,00 h 0,0 UV-I 0 W/m -10,8 C -9,2 C 0,7 km/h (0 Bft)
30.01.2017 01:00 22,4 C -9,4 C 48 % 88 % 1025,5 hPa 0,0 l/m 0,0 km/h (0 Bft) N 0,00 h 0,0 UV-I 0 W/m -11,0 C -9,4 C 0,0 km/h (0 Bft)
30.01.2017 02:00 22,2 C -10,0 C 48 % 88 % 1025,1 hPa 0,0 l/m 0,1 km/h (0 Bft) O-SO 0,00 h 0,0 UV-I 0 W/m -11,6 C -10,0 C 0,2 km/h (0 Bft)
30.01.2017 03:00 22,1 C -10,3 C 48 % 89 % 1024,4 hPa 0,0 l/m 0,0 km/h (0 Bft) O-SO 0,00 h 0,0 UV-I 0 W/m -11,7 C -10,3 C 0,3 km/h (0 Bft)
30.01.2017 04:00 22,0 C -10,8 C 49 % 88 % 1023,9 hPa 0,0 l/m 0,0 km/h (0 Bft) N 0,00 h 0,0 UV-I 0 W/m -12,3 C -10,8 C 0,0 km/h (0 Bft)
30.01.2017 05:00 21,9 C -11,2 C 49 % 88 % 1023,6 hPa 0,0 l/m 0,0 km/h (0 Bft) N 0,00 h 0,0 UV-I 0 W/m -12,8 C -11,2 C 0,0 km/h (0 Bft)
30.01.2017 06:00 21,8 C -11,5 C 49 % 89 % 1023,1 hPa 0,0 l/m 0,0 km/h (0 Bft) N 0,00 h 0,0 UV-I 0 W/m -12,9 C -11,5 C 0,0 km/h (0 Bft)
30.01.2017 07:00 21,8 C -11,6 C 50 % 89 % 1022,8 hPa 0,0 l/m 0,1 km/h (0 Bft) O-SO 0,00 h 0,0 UV-I 10 W/m -13,0 C -11,6 C 0,3 km/h (0 Bft)
30.01.2017 08:00 22,0 C -10,6 C 51 % 90 % 1022,8 hPa 0,0 l/m 0,0 km/h (0 Bft) O-NO 0,00 h 0,0 UV-I 58 W/m -11,9 C -10,6 C 0,1 km/h (0 Bft)
30.01.2017 09:00 22,2 C -8,1 C 51 % 87 % 1021,9 hPa 0,0 l/m 0,5 km/h (0 Bft) O-NO 0,50 h 0,6 UV-I 151 W/m -9,9 C -8,1 C 1,4 km/h (1 Bft)
30.01.2017 10:00 22,3 C -3,8 C 50 % 80 % 1021,3 hPa 0,0 l/m 0,4 km/h (0 Bft) W-NW 1,00 h 1,0 UV-I 253 W/m -6,8 C -3,8 C 0,8 km/h (0 Bft)
30.01.2017 11:00 22,4 C -1,8 C 51 % 79 % 1020,8 hPa 0,0 l/m 0,0 km/h (0 Bft) N 0,42 h 1,0 UV-I 160 W/m -5,0 C -1,8 C 0,0 km/h (0 Bft)
30.01.2017 12:00 22,6 C -0,6 C 51 % 78 % 1019,9 hPa 0,0 l/m 0,0 km/h (0 Bft) N 0,65 h 1,1 UV-I 176 W/m -3,9 C -0,6 C 0,0 km/h (0 Bft)
30.01.2017 13:00 22,7 C 1,1 C 50 % 76 % 1018,8 hPa 0,0 l/m 1,2 km/h (1 Bft) S 0,85 h 0,9 UV-I 197 W/m -2,6 C 1,0 C 3,2 km/h (1 Bft)
30.01.2017 14:00 23,0 C 1,7 C 50 % 79 % 1017,7 hPa 0,0 l/m 2,6 km/h (1 Bft) S 0,05 h 0,6 UV-I 113 W/m -1,5 C 1,3 C 5,3 km/h (1 Bft)
30.01.2017 15:00 22,8 C 1,8 C 50 % 84 % 1017,2 hPa 0,0 l/m 2,9 km/h (1 Bft) S 0,00 h 0,0 UV-I 57 W/m -0,6 C 1,4 C 5,0 km/h (1 Bft)
30.01.2017 16:00 22,6 C 1,6 C 50 % 88 % 1016,9 hPa 0,0 l/m 7,4 km/h (2 Bft) S 0,00 h 0,0 UV-I 6 W/m -0,2 C -0,1 C 11,1 km/h (2 Bft)
30.01.2017 17:00 22,6 C 1,3 C 51 % 91 % 1016,8 hPa 0,0 l/m 3,8 km/h (1 Bft) S 0,00 h 0,0 UV-I 0 W/m -0,0 C 1,2 C 7,2 km/h (2 Bft)
30.01.2017 18:00 23,0 C 1,4 C 51 % 92 % 1016,4 hPa 0,6 l/m 3,9 km/h (1 Bft) S 0,00 h 0,0 UV-I 0 W/m 0,2 C 0,9 C 6,6 km/h (2 Bft)
30.01.2017 19:00 23,1 C 1,6 C 52 % 94 % 1016,0 hPa 0,4 l/m 10,3 km/h (2 Bft) S 0,00 h 0,0 UV-I 0 W/m 0,7 C -1,7 C 16,1 km/h (3 Bft)
30.01.2017 20:00 23,1 C 1,7 C 52 % 95 % 1015,5 hPa 0,4 l/m 11,2 km/h (2 Bft) S 0,00 h 0,0 UV-I 0 W/m 1,0 C -2,3 C 17,2 km/h (3 Bft)
30.01.2017 21:00 23,2 C 1,5 C 52 % 95 % 1015,1 hPa 0,2 l/m 9,9 km/h (2 Bft) S 0,00 h 0,0 UV-I 0 W/m 0,7 C -1,6 C 15,2 km/h (3 Bft)
30.01.2017 22:00 23,2 C 1,6 C 52 % 96 % 1014,9 hPa 0,0 l/m 9,5 km/h (2 Bft) S 0,00 h 0,0 UV-I 0 W/m 0,9 C -1,3 C 15,3 km/h (3 Bft)
30.01.2017 23:00 22,9 C 1,6 C 52 % 96 % 1014,9 hPa 0,2 l/m 3,1 km/h (1 Bft) S 0,00 h 0,0 UV-I 0 W/m 1,0 C 1,4 C 6,4 km/h (2 Bft)
31.01.2017 00:00 22,5 C 1,5 C 53 % 96 % 1014,5 hPa 0,0 l/m 4,3 km/h (1 Bft) S 0,00 h 0,0 UV-I 0 W/m 1,0 C 1,0 C 8,1 km/h (2 Bft)
31.01.2017 01:00 22,3 C 1,6 C 53 % 96 % 1014,3 hPa 0,4 l/m 3,5 km/h (1 Bft) SW 0,00 h 0,0 UV-I 0 W/m 1,0 C 1,5 C 6,6 km/h (2 Bft)
31.01.2017 02:00 22,2 C 1,4 C 53 % 96 % 1014,3 hPa 0,2 l/m 0,6 km/h (0 Bft) S-SW 0,00 h 0,0 UV-I 0 W/m 0,9 C 1,4 C 1,6 km/h (1 Bft)
31.01.2017 03:00 22,1 C 1,2 C 53 % 96 % 1014,2 hPa 0,2 l/m 0,3 km/h (0 Bft) W-SW 0,00 h 0,0 UV-I 0 W/m 0,6 C 1,2 C 0,7 km/h (0 Bft)
31.01.2017 04:00 22,1 C 1,0 C 53 % 96 % 1014,2 hPa 0,0 l/m 0,0 km/h (0 Bft) N 0,00 h 0,0 UV-I 0 W/m 0,5 C 1,0 C 0,0 km/h (0 Bft)
31.01.2017 05:00 21,9 C 0,9 C 54 % 96 % 1014,1 hPa 0,2 l/m 0,0 km/h (0 Bft) N 0,00 h 0,0 UV-I 0 W/m 0,4 C 0,9 C 0,0 km/h (0 Bft)
31.01.2017 06:00 21,9 C 0,9 C 54 % 96 % 1014,2 hPa 0,0 l/m 0,0 km/h (0 Bft) N 0,00 h 0,0 UV-I 0 W/m 0,4 C 0,9 C 0,0 km/h (0 Bft)
31.01.2017 07:00 21,9 C 0,9 C 54 % 97 % 1014,2 hPa 0,0 l/m 0,0 km/h (0 Bft) N 0,00 h 0,0 UV-I 5 W/m 0,5 C 0,9 C 0,0 km/h (0 Bft)
31.01.2017 08:00 22,1 C 1,1 C 55 % 97 % 1014,2 hPa 0,2 l/m 0,0 km/h (0 Bft) N 0,00 h 0,0 UV-I 17 W/m 0,6 C 1,1 C 0,0 km/h (0 Bft)
31.01.2017 09:00 22,7 C 1,5 C 54 % 97 % 1014,2 hPa 0,0 l/m 0,3 km/h (0 Bft) SO 0,00 h 0,5 UV-I 74 W/m 1,1 C 1,5 C 0,4 km/h (0 Bft)
31.01.2017 10:00 22,9 C 1,6 C 52 % 97 % 1014,6 hPa 0,0 l/m 0,0 km/h (0 Bft) N 0,03 h 0,5 UV-I 79 W/m 1,1 C 1,6 C 0,0 km/h (0 Bft)
31.01.2017 11:00 22,8 C 1,4 C 49 % 96 % 1014,9 hPa 0,0 l/m 0,0 km/h (0 Bft) N 0,00 h 0,0 UV-I 32 W/m 0,9 C 1,4 C 0,0 km/h (0 Bft)
31.01.2017 12:00 22,7 C 1,2 C 48 % 96 % 1015,0 hPa 0,0 l/m 0,1 km/h (0 Bft) O-NO 0,00 h 0,0 UV-I 49 W/m 0,6 C 1,2 C 0,3 km/h (0 Bft)
31.01.2017 13:00 22,5 C 1,1 C 49 % 96 % 1015,0 hPa 0,0 l/m 0,0 km/h (0 Bft) N 0,00 h 0,5 UV-I 52 W/m 0,6 C 1,1 C 0,0 km/h (0 Bft)
31.01.2017 14:00 22,6 C 0,5 C 50 % 95 % 1015,3 hPa 0,0 l/m 1,9 km/h (1 Bft) N 0,00 h 0,0 UV-I 37 W/m -0,2 C 0,5 C 3,7 km/h (1 Bft)
31.01.2017 15:00 22,8 C -0,3 C 51 % 94 % 1015,9 hPa 0,0 l/m 1,7 km/h (1 Bft) N-NW 0,00 h 0,0 UV-I 23 W/m -1,1 C -0,3 C 2,9 km/h (1 Bft)
31.01.2017 16:00 22,8 C -0,7 C 51 % 94 % 1016,6 hPa 0,0 l/m 0,3 km/h (0 Bft) N-NW 0,00 h 0,0 UV-I 9 W/m -1,5 C -0,7 C 0,7 km/h (0 Bft)
31.01.2017 17:00 22,9 C -1,0 C 51 % 94 % 1017,1 hPa 0,0 l/m 1,0 km/h (0 Bft) NW 0,00 h 0,0 UV-I 7 W/m -1,8 C -1,0 C 1,8 km/h (1 Bft)
31.01.2017 18:00 23,1 C -1,2 C 51 % 94 % 1017,6 hPa 0,0 l/m 1,8 km/h (1 Bft) NW 0,00 h 0,0 UV-I 0 W/m -2,0 C -1,2 C 3,3 km/h (1 Bft)
31.01.2017 19:00 23,2 C -1,4 C 51 % 94 % 1017,8 hPa 0,0 l/m 1,9 km/h (1 Bft) NW 0,00 h 0,0 UV-I 0 W/m -2,3 C -1,5 C 3,7 km/h (1 Bft)
31.01.2017 20:00 23,2 C -1,7 C 52 % 94 % 1018,4 hPa 0,0 l/m 1,0 km/h (0 Bft) NW 0,00 h 0,0 UV-I 0 W/m -2,5 C -1,7 C 2,5 km/h (1 Bft)
31.01.2017 21:00 23,4 C -1,8 C 52 % 93 % 1018,8 hPa 0,0 l/m 0,1 km/h (0 Bft) NW 0,00 h 0,0 UV-I 0 W/m -2,8 C -1,8 C 0,6 km/h (0 Bft)
31.01.2017 22:00 23,6 C -1,9 C 52 % 93 % 1019,1 hPa 0,0 l/m 1,2 km/h (1 Bft) NW 0,00 h 0,0 UV-I 0 W/m -2,9 C -1,9 C 2,2 km/h (1 Bft)
31.01.2017 23:00 23,3 C -2,1 C 52 % 94 % 1019,5 hPa 0,0 l/m 1,8 km/h (1 Bft) NW 0,00 h 0,0 UV-I 0 W/m -3,0 C -2,1 C 3,6 km/h (1 Bft)
01.02.2017 00:00 22,8 C -2,2 C 52 % 94 % 1019,8 hPa 0,0 l/m 1,6 km/h (1 Bft) NW 0,00 h 0,0 UV-I 0 W/m -3,0 C -2,2 C 3,1 km/h (1 Bft)
01.02.2017 01:00 22,6 C -2,3 C 52 % 94 % 1019,9 hPa 0,0 l/m 0,7 km/h (0 Bft) NW 0,00 h 0,0 UV-I 0 W/m -3,1 C -2,3 C 1,5 km/h (1 Bft)
01.02.2017 02:00 22,4 C -2,5 C 52 % 94 % 1020,0 hPa 0,0 l/m 0,5 km/h (0 Bft) NW 0,00 h 0,0 UV-I 0 W/m -3,3 C -2,5 C 1,4 km/h (1 Bft)
01.02.2017 03:00 22,3 C -2,6 C 53 % 94 % 1020,2 hPa 0,0 l/m 0,4 km/h (0 Bft) NW 0,00 h 0,0 UV-I 0 W/m -3,4 C -2,6 C 1,3 km/h (1 Bft)
01.02.2017 04:00 22,3 C -2,5 C 53 % 95 % 1020,5 hPa 0,0 l/m 0,2 km/h (0 Bft) NW 0,00 h 0,0 UV-I 0 W/m -3,2 C -2,5 C 0,5 km/h (0 Bft)
01.02.2017 05:00 22,2 C -2,3 C 53 % 95 % 1020,6 hPa 0,0 l/m 0,0 km/h (0 Bft) N 0,00 h 0,0 UV-I 0 W/m -3,0 C -2,3 C 0,0 km/h (0 Bft)
01.02.2017 06:00 22,1 C -2,2 C 53 % 95 % 1020,7 hPa 0,0 l/m 0,1 km/h (0 Bft) NW 0,00 h 0,0 UV-I 0 W/m -2,9 C -2,2 C 0,2 km/h (0 Bft)
01.02.2017 07:00 22,3 C -2,0 C 54 % 95 % 1020,7 hPa 0,0 l/m 0,0 km/h (0 Bft) N 0,00 h 0,0 UV-I 0 W/m -2,7 C -2,0 C 0,0 km/h (0 Bft)
01.02.2017 08:00 22,3 C -1,8 C 55 % 95 % 1021,1 hPa 0,0 l/m 0,0 km/h (0 Bft) N 0,00 h 0,0 UV-I 17 W/m -2,5 C -1,8 C 0,0 km/h (0 Bft)
01.02.2017 09:00 22,4 C -1,4 C 55 % 95 % 1021,3 hPa 0,0 l/m 0,0 km/h (0 Bft) N 0,00 h 0,0 UV-I 42 W/m -2,2 C -1,4 C 0,0 km/h (0 Bft)
01.02.2017 10:00 22,6 C -0,9 C 54 % 93 % 1021,3 hPa 0,0 l/m 0,0 km/h (0 Bft) N 0,00 h 0,6 UV-I 92 W/m -1,9 C -0,9 C 0,0 km/h (0 Bft)
01.02.2017 11:00 22,6 C -0,3 C 51 % 91 % 1021,2 hPa 0,0 l/m 0,0 km/h (0 Bft) N 0,50 h 0,9 UV-I 138 W/m -1,6 C -0,3 C 0,0 km/h (0 Bft)
01.02.2017 12:00 22,5 C 0,5 C 49 % 90 % 1020,9 hPa 0,0 l/m 0,0 km/h (0 Bft) N 0,15 h 0,8 UV-I 129 W/m -1,0 C 0,5 C 0,0 km/h (0 Bft)
01.02.2017 13:00 22,5 C 0,4 C 49 % 89 % 1020,3 hPa 0,0 l/m 0,5 km/h (0 Bft) SO 0,15 h 0,7 UV-I 112 W/m -1,3 C 0,4 C 1,5 km/h (1 Bft)
01.02.2017 14:00 22,7 C 0,8 C 50 % 88 % 1019,7 hPa 0,0 l/m 0,0 km/h (0 Bft) SO 0,18 h 0,8 UV-I 97 W/m -1,0 C 0,8 C 0,3 km/h (0 Bft)
01.02.2017 15:00 23,0 C 0,9 C 49 % 88 % 1019,8 hPa 0,0 l/m 0,1 km/h (0 Bft) O-NO 0,00 h 0,0 UV-I 37 W/m -0,8 C 0,9 C 0,1 km/h (0 Bft)
01.02.2017 16:00 22,9 C 0,6 C 49 % 89 % 1020,0 hPa 0,0 l/m 0,7 km/h (0 Bft) O-NO 0,00 h 0,0 UV-I 14 W/m -1,0 C 0,6 C 2,2 km/h (1 Bft)
01.02.2017 17:00 23,1 C -0,2 C 49 % 89 % 1020,1 hPa 0,0 l/m 1,7 km/h (1 Bft) O-SO 0,00 h 0,0 UV-I 0 W/m -1,7 C -0,2 C 4,3 km/h (1 Bft)
01.02.2017 18:00 23,1 C -0,5 C 51 % 90 % 1020,5 hPa 0,0 l/m 3,6 km/h (1 Bft) SO 0,00 h 0,0 UV-I 0 W/m -1,9 C -0,6 C 6,7 km/h (2 Bft)
01.02.2017 19:00 23,3 C -0,8 C 53 % 90 % 1020,6 hPa 0,0 l/m 2,9 km/h (1 Bft) O-SO 0,00 h 0,0 UV-I 0 W/m -2,2 C -0,8 C 7,0 km/h (2 Bft)
01.02.2017 20:00 23,3 C -1,0 C 53 % 91 % 1020,2 hPa 0,0 l/m 3,1 km/h (1 Bft) O-SO 0,00 h 0,0 UV-I 0 W/m -2,3 C -1,3 C 6,6 km/h (2 Bft)
01.02.2017 21:00 23,5 C -1,4 C 54 % 91 % 1019,9 hPa 0,0 l/m 1,5 km/h (1 Bft) O-SO 0,00 h 0,0 UV-I 0 W/m -2,6 C -1,4 C 3,7 km/h (1 Bft)
01.02.2017 22:00 23,4 C -2,1 C 54 % 91 % 1019,7 hPa 0,0 l/m 0,2 km/h (0 Bft) O-SO 0,00 h 0,0 UV-I 0 W/m -3,4 C -2,1 C 0,9 km/h (0 Bft)
01.02.2017 23:00 23,0 C -3,0 C 54 % 92 % 1019,6 hPa 0,0 l/m 0,4 km/h (0 Bft) O 0,00 h 0,0 UV-I 0 W/m -4,1 C -3,0 C 1,2 km/h (1 Bft)
02.02.2017 00:00 22,7 C -3,7 C 54 % 92 % 1019,4 hPa 0,0 l/m 0,0 km/h (0 Bft) N 0,00 h 0,0 UV-I 0 W/m -4,8 C -3,7 C 0,0 km/h (0 Bft)
02.02.2017 01:00 22,6 C -4,4 C 54 % 92 % 1018,8 hPa 0,0 l/m 0,0 km/h (0 Bft) O 0,00 h 0,0 UV-I 0 W/m -5,5 C -4,4 C 0,2 km/h (0 Bft)
02.02.2017 02:00 22,4 C -5,1 C 54 % 92 % 1018,8 hPa 0,0 l/m 0,0 km/h (0 Bft) N 0,00 h 0,0 UV-I 0 W/m -6,2 C -5,1 C 0,0 km/h (0 Bft)
02.02.2017 03:00 22,3 C -4,6 C 54 % 94 % 1018,6 hPa 0,0 l/m 0,0 km/h (0 Bft) N 0,00 h 0,0 UV-I 0 W/m -5,5 C -4,6 C 0,1 km/h (0 Bft)
02.02.2017 04:00 22,3 C -3,7 C 54 % 95 % 1018,3 hPa 0,0 l/m 0,0 km/h (0 Bft) N 0,00 h 0,0 UV-I 0 W/m -4,4 C -3,7 C 0,0 km/h (0 Bft)
02.02.2017 05:00 22,2 C -3,2 C 54 % 95 % 1017,9 hPa 0,0 l/m 0,0 km/h (0 Bft) N 0,00 h 0,0 UV-I 0 W/m -3,9 C -3,2 C 0,0 km/h (0 Bft)
02.02.2017 06:00 22,1 C -2,5 C 54 % 96 % 1017,7 hPa 0,4 l/m 0,0 km/h (0 Bft) N 0,00 h 0,0 UV-I 0 W/m -3,1 C -2,5 C 0,0 km/h (0 Bft)
02.02.2017 07:00 22,3 C -1,7 C 55 % 96 % 1017,7 hPa 0,0 l/m 0,0 km/h (0 Bft) N 0,00 h 0,0 UV-I 0 W/m -2,3 C -1,7 C 0,0 km/h (0 Bft)
02.02.2017 08:00 22,5 C -1,3 C 55 % 96 % 1017,7 hPa 0,0 l/m 0,0 km/h (0 Bft) N 0,00 h 0,0 UV-I 10 W/m -1,9 C -1,3 C 0,0 km/h (0 Bft)
02.02.2017 09:00 23,0 C -0,7 C 55 % 96 % 1017,5 hPa 0,0 l/m 0,0 km/h (0 Bft) N 0,00 h 0,0 UV-I 51 W/m -1,3 C -0,7 C 0,0 km/h (0 Bft)
02.02.2017 10:00 22,9 C 0,0 C 54 % 96 % 1017,0 hPa 0,0 l/m 0,0 km/h (0 Bft) N 0,00 h 0,5 UV-I 81 W/m -0,5 C 0,0 C 0,0 km/h (0 Bft)
02.02.2017 11:00 22,8 C 0,7 C 53 % 96 % 1016,6 hPa 0,0 l/m 0,0 km/h (0 Bft) N 0,23 h 0,7 UV-I 127 W/m 0,1 C 0,7 C 0,0 km/h (0 Bft)
02.02.2017 12:00 23,3 C 1,4 C 53 % 95 % 1015,6 hPa 0,0 l/m 0,0 km/h (0 Bft) N 0,55 h 0,9 UV-I 152 W/m 0,7 C 1,4 C 0,0 km/h (0 Bft)
02.02.2017 13:00 23,8 C 2,2 C 53 % 94 % 1015,0 hPa 0,0 l/m 0,0 km/h (0 Bft) N 0,18 h 0,7 UV-I 128 W/m 1,4 C 2,2 C 0,0 km/h (0 Bft)
02.02.2017 14:00 23,9 C 2,7 C 53 % 94 % 1014,7 hPa 0,0 l/m 0,0 km/h (0 Bft) N 0,17 h 0,6 UV-I 108 W/m 1,8 C 2,7 C 0,0 km/h (0 Bft)
02.02.2017 15:00 23,9 C 2,7 C 53 % 94 % 1014,4 hPa 0,0 l/m 0,0 km/h (0 Bft) N 0,00 h 0,5 UV-I 51 W/m 1,8 C 2,7 C 0,0 km/h (0 Bft)
02.02.2017 16:00 23,9 C 2,4 C 53 % 95 % 1014,3 hPa 0,0 l/m 0,0 km/h (0 Bft) N 0,00 h 0,0 UV-I 18 W/m 1,6 C 2,4 C 0,0 km/h (0 Bft)
02.02.2017 17:00 23,9 C 2,2 C 53 % 95 % 1014,1 hPa 0,0 l/m 0,0 km/h (0 Bft) N 0,00 h 0,0 UV-I 0 W/m 1,5 C 2,2 C 0,0 km/h (0 Bft)
02.02.2017 18:00 23,7 C 1,8 C 54 % 95 % 1013,7 hPa 0,0 l/m 0,0 km/h (0 Bft) N 0,00 h 0,0 UV-I 0 W/m 1,1 C 1,8 C 0,0 km/h (0 Bft)
02.02.2017 19:00 23,7 C 1,6 C 55 % 95 % 1013,5 hPa 0,0 l/m 0,1 km/h (0 Bft) W-NW 0,00 h 0,0 UV-I 0 W/m 0,9 C 1,6 C 0,3 km/h (0 Bft)
02.02.2017 20:00 23,7 C 1,1 C 55 % 95 % 1013,1 hPa 0,0 l/m 0,0 km/h (0 Bft) N 0,00 h 0,0 UV-I 0 W/m 0,4 C 1,1 C 0,0 km/h (0 Bft)
02.02.2017 21:00 23,9 C 0,8 C 55 % 95 % 1012,9 hPa 0,0 l/m 0,0 km/h (0 Bft) N 0,00 h 0,0 UV-I 0 W/m 0,1 C 0,8 C 0,0 km/h (0 Bft)
02.02.2017 22:00 23,9 C 0,6 C 54 % 95 % 1012,6 hPa 0,0 l/m 0,0 km/h (0 Bft) N 0,00 h 0,0 UV-I 0 W/m -0,0 C 0,6 C 0,0 km/h (0 Bft)
02.02.2017 23:00 23,4 C 0,6 C 55 % 96 % 1012,1 hPa 0,0 l/m 0,0 km/h (0 Bft) N 0,00 h 0,0 UV-I 0 W/m 0,0 C 0,6 C 0,0 km/h (0 Bft)
03.02.2017 00:00 23,2 C 0,6 C 55 % 96 % 1012,1 hPa 0,0 l/m 0,0 km/h (0 Bft) N 0,00 h 0,0 UV-I 0 W/m -0,0 C 0,6 C 0,0 km/h (0 Bft)
03.02.2017 01:00 23,0 C 0,6 C 55 % 96 % 1011,6 hPa 0,0 l/m 0,0 km/h (0 Bft) N 0,00 h 0,0 UV-I 0 W/m -0,0 C 0,6 C 0,0 km/h (0 Bft)
03.02.2017 02:00 22,8 C 0,4 C 55 % 96 % 1011,4 hPa 0,0 l/m 0,0 km/h (0 Bft) N 0,00 h 0,0 UV-I 0 W/m -0,2 C 0,4 C 0,0 km/h (0 Bft)
03.02.2017 03:00 22,7 C -0,1 C 56 % 96 % 1011,0 hPa 0,0 l/m 0,0 km/h (0 Bft) N 0,00 h 0,0 UV-I 0 W/m -0,6 C -0,1 C 0,0 km/h (0 Bft)
03.02.2017 04:00 22,6 C -0,7 C 56 % 96 % 1010,6 hPa 0,0 l/m 0,0 km/h (0 Bft) N 0,00 h 0,0 UV-I 0 W/m -1,3 C -0,7 C 0,0 km/h (0 Bft)
03.02.2017 05:00 22,6 C -1,1 C 56 % 96 % 1010,2 hPa 0,0 l/m 0,0 km/h (0 Bft) N 0,00 h 0,0 UV-I 0 W/m -1,7 C -1,1 C 0,2 km/h (0 Bft)
03.02.2017 06:00 22,5 C -1,0 C 56 % 96 % 1010,3 hPa 0,0 l/m 0,6 km/h (0 Bft) N 0,00 h 0,0 UV-I 0 W/m -1,5 C -1,0 C 1,4 km/h (1 Bft)
03.02.2017 07:00 22,7 C -1,0 C 57 % 96 % 1010,1 hPa 0,0 l/m 0,0 km/h (0 Bft) N 0,00 h 0,0 UV-I 10 W/m -1,6 C -1,0 C 0,0 km/h (0 Bft)
03.02.2017 08:00 22,8 C -0,7 C 57 % 96 % 1010,1 hPa 0,0 l/m 0,0 km/h (0 Bft) N 0,00 h 0,0 UV-I 28 W/m -1,3 C -0,7 C 0,1 km/h (0 Bft)
03.02.2017 09:00 22,9 C -0,1 C 58 % 96 % 1009,9 hPa 0,0 l/m 0,1 km/h (0 Bft) W-NW 0,00 h 0,5 UV-I 65 W/m -0,6 C -0,1 C 0,2 km/h (0 Bft)
03.02.2017 10:00 22,9 C 0,6 C 57 % 96 % 1010,2 hPa 0,0 l/m 0,0 km/h (0 Bft) N 0,00 h 0,6 UV-I 80 W/m 0,0 C 0,6 C 0,0 km/h (0 Bft)
03.02.2017 11:00 22,9 C 1,2 C 57 % 95 % 1010,3 hPa 0,0 l/m 0,0 km/h (0 Bft) N 0,00 h 0,8 UV-I 109 W/m 0,6 C 1,2 C 0,0 km/h (0 Bft)
03.02.2017 12:00 22,9 C 2,5 C 56 % 94 % 1009,9 hPa 0,0 l/m 0,0 km/h (0 Bft) N 0,20 h 1,1 UV-I 170 W/m 1,6 C 2,5 C 0,0 km/h (0 Bft)
03.02.2017 13:00 23,1 C 3,6 C 54 % 88 % 1009,4 hPa 0,0 l/m 0,0 km/h (0 Bft) N 0,30 h 0,9 UV-I 155 W/m 1,8 C 3,6 C 0,0 km/h (0 Bft)
03.02.2017 14:00 23,2 C 4,0 C 53 % 90 % 1008,8 hPa 0,0 l/m 0,0 km/h (0 Bft) N 0,30 h 0,7 UV-I 143 W/m 2,4 C 4,0 C 0,0 km/h (0 Bft)
03.02.2017 15:00 23,3 C 4,1 C 54 % 89 % 1008,7 hPa 0,0 l/m 0,1 km/h (0 Bft) W-SW 0,00 h 0,5 UV-I 75 W/m 2,4 C 4,1 C 0,7 km/h (0 Bft)
03.02.2017 16:00 23,3 C 3,6 C 54 % 92 % 1009,1 hPa 0,0 l/m 0,0 km/h (0 Bft) N 0,00 h 0,0 UV-I 20 W/m 2,5 C 3,6 C 0,0 km/h (0 Bft)
03.02.2017 17:00 23,4 C 3,4 C 54 % 92 % 1008,9 hPa 0,0 l/m 0,0 km/h (0 Bft) N 0,00 h 0,0 UV-I 0 W/m 2,2 C 3,4 C 0,0 km/h (0 Bft)
03.02.2017 18:00 23,5 C 2,7 C 54 % 92 % 1008,9 hPa 0,0 l/m 0,0 km/h (0 Bft) N 0,00 h 0,0 UV-I 0 W/m 1,5 C 2,7 C 0,0 km/h (0 Bft)
03.02.2017 19:00 23,6 C 2,0 C 55 % 93 % 1008,7 hPa 0,0 l/m 0,0 km/h (0 Bft) N 0,00 h 0,0 UV-I 0 W/m 1,1 C 2,0 C 0,0 km/h (0 Bft)
03.02.2017 20:00 23,4 C 1,6 C 55 % 94 % 1008,7 hPa 0,0 l/m 0,0 km/h (0 Bft) N 0,00 h 0,0 UV-I 0 W/m 0,8 C 1,6 C 0,2 km/h (0 Bft)
03.02.2017 21:00 23,5 C 1,6 C 55 % 95 % 1009,0 hPa 0,0 l/m 0,0 km/h (0 Bft) N 0,00 h 0,0 UV-I 0 W/m 0,9 C 1,6 C 0,0 km/h (0 Bft)
03.02.2017 22:00 23,6 C 1,8 C 56 % 96 % 1008,5 hPa 0,0 l/m 3,7 km/h (1 Bft) O-NO 0,00 h 0,0 UV-I 0 W/m 1,2 C 1,4 C 6,5 km/h (2 Bft)
03.02.2017 23:00 23,5 C 1,7 C 56 % 96 % 1009,1 hPa 0,0 l/m 0,0 km/h (0 Bft) N 0,00 h 0,0 UV-I 0 W/m 1,1 C 1,7 C 0,0 km/h (0 Bft)
04.02.2017 00:00 23,1 C 1,9 C 56 % 96 % 1008,8 hPa 0,0 l/m 0,7 km/h (0 Bft) O 0,00 h 0,0 UV-I 0 W/m 1,4 C 1,9 C 1,3 km/h (1 Bft)
04.02.2017 01:00 22,8 C 2,2 C 56 % 96 % 1008,4 hPa 0,0 l/m 0,0 km/h (0 Bft) N 0,00 h 0,0 UV-I 0 W/m 1,6 C 2,2 C 0,0 km/h (0 Bft)
04.02.2017 02:00 22,7 C 2,2 C 57 % 97 % 1008,4 hPa 0,0 l/m 0,0 km/h (0 Bft) N 0,00 h 0,0 UV-I 0 W/m 1,7 C 2,2 C 0,0 km/h (0 Bft)
04.02.2017 03:00 22,6 C 2,3 C 57 % 97 % 1008,4 hPa 0,0 l/m 0,0 km/h (0 Bft) W-SW 0,00 h 0,0 UV-I 0 W/m 1,8 C 2,3 C 0,1 km/h (0 Bft)
04.02.2017 04:00 22,5 C 1,9 C 57 % 97 % 1008,8 hPa 0,0 l/m 0,6 km/h (0 Bft) S-SW 0,00 h 0,0 UV-I 0 W/m 1,5 C 1,9 C 1,6 km/h (1 Bft)
04.02.2017 05:00 22,4 C 1,7 C 57 % 97 % 1008,7 hPa 0,0 l/m 0,0 km/h (0 Bft) N 0,00 h 0,0 UV-I 0 W/m 1,2 C 1,7 C 0,0 km/h (0 Bft)
04.02.2017 06:00 22,3 C 1,4 C 57 % 97 % 1008,3 hPa 0,0 l/m 0,0 km/h (0 Bft) N 0,00 h 0,0 UV-I 0 W/m 1,0 C 1,4 C 0,0 km/h (0 Bft)
04.02.2017 07:00 22,5 C 1,0 C 57 % 97 % 1008,1 hPa 0,0 l/m 0,0 km/h (0 Bft) N 0,00 h 0,0 UV-I 5 W/m 0,6 C 1,0 C 0,0 km/h (0 Bft)
04.02.2017 08:00 22,9 C 0,5 C 57 % 97 % 1008,0 hPa 0,0 l/m 0,0 km/h (0 Bft) N 0,00 h 0,0 UV-I 21 W/m 0,1 C 0,5 C 0,0 km/h (0 Bft)
04.02.2017 09:00 22,9 C 0,1 C 57 % 97 % 1007,6 hPa 0,0 l/m 0,0 km/h (0 Bft) N 0,00 h 0,0 UV-I 60 W/m -0,3 C 0,1 C 0,0 km/h (0 Bft)
04.02.2017 10:00 23,3 C 0,5 C 58 % 98 % 1007,3 hPa 0,0 l/m 0,0 km/h (0 Bft) N 0,00 h 0,6 UV-I 94 W/m 0,2 C 0,5 C 0,0 km/h (0 Bft)
04.02.2017 11:00 23,2 C 0,8 C 58 % 98 % 1006,7 hPa 0,0 l/m 0,0 km/h (0 Bft) N 0,15 h 0,7 UV-I 126 W/m 0,5 C 0,8 C 0,0 km/h (0 Bft)
04.02.2017 12:00 23,1 C 1,5 C 58 % 98 % 1005,4 hPa 0,0 l/m 0,0 km/h (0 Bft) N 0,98 h 1,0 UV-I 196 W/m 1,2 C 1,5 C 0,0 km/h (0 Bft)
04.02.2017 13:00 23,1 C 3,7 C 57 % 94 % 1003,8 hPa 0,0 l/m 0,0 km/h (0 Bft) N 1,00 h 1,3 UV-I 317 W/m 2,8 C 3,7 C 0,0 km/h (0 Bft)
04.02.2017 14:00 23,1 C 5,0 C 56 % 85 % 1003,0 hPa 0,0 l/m 0,2 km/h (0 Bft) O-NO 0,88 h 0,9 UV-I 190 W/m 2,8 C 5,0 C 0,9 km/h (0 Bft)
04.02.2017 15:00 23,1 C 4,4 C 55 % 85 % 1002,9 hPa 0,0 l/m 0,0 km/h (0 Bft) N 0,00 h 0,5 UV-I 70 W/m 2,1 C 4,4 C 0,0 km/h (0 Bft)
04.02.2017 16:00 23,4 C 3,9 C 54 % 87 % 1002,7 hPa 0,0 l/m 0,0 km/h (0 Bft) N 0,00 h 0,0 UV-I 24 W/m 2,0 C 3,9 C 0,0 km/h (0 Bft)
04.02.2017 17:00 23,3 C 2,9 C 53 % 90 % 1003,0 hPa 0,0 l/m 0,1 km/h (0 Bft) O 0,00 h 0,0 UV-I 0 W/m 1,5 C 2,9 C 0,3 km/h (0 Bft)
04.02.2017 18:00 23,4 C 2,1 C 53 % 92 % 1003,3 hPa 0,0 l/m 0,0 km/h (0 Bft) N 0,00 h 0,0 UV-I 0 W/m 1,0 C 2,1 C 0,1 km/h (0 Bft)
04.02.2017 19:00 23,8 C 1,8 C 54 % 93 % 1003,5 hPa 0,0 l/m 0,8 km/h (0 Bft) O-SO 0,00 h 0,0 UV-I 0 W/m 0,9 C 1,8 C 2,1 km/h (1 Bft)
04.02.2017 20:00 23,8 C 2,0 C 55 % 94 % 1003,5 hPa 0,0 l/m 0,2 km/h (0 Bft) W 0,00 h 0,0 UV-I 0 W/m 1,1 C 2,0 C 0,5 km/h (0 Bft)
04.02.2017 21:00 23,9 C 1,4 C 55 % 94 % 1003,6 hPa 0,0 l/m 0,1 km/h (0 Bft) SO 0,00 h 0,0 UV-I 0 W/m 0,5 C 1,4 C 0,5 km/h (0 Bft)
04.02.2017 22:00 23,8 C 3,0 C 55 % 95 % 1003,7 hPa 0,0 l/m 4,6 km/h (1 Bft) S 0,00 h 0,0 UV-I 0 W/m 2,2 C 2,1 C 8,5 km/h (2 Bft)
04.02.2017 23:00 23,6 C 3,3 C 56 % 94 % 1003,8 hPa 0,4 l/m 5,0 km/h (1 Bft) S 0,00 h 0,0 UV-I 0 W/m 2,4 C 3,0 C 8,9 km/h (2 Bft)
05.02.2017 00:00 23,2 C 3,2 C 56 % 95 % 1004,0 hPa 0,0 l/m 3,2 km/h (1 Bft) S 0,00 h 0,0 UV-I 0 W/m 2,5 C 3,1 C 6,5 km/h (2 Bft)
05.02.2017 01:00 23,1 C 3,0 C 56 % 95 % 1004,0 hPa 0,0 l/m 6,5 km/h (2 Bft) S 0,00 h 0,0 UV-I 0 W/m 2,3 C 2,2 C 11,0 km/h (2 Bft)
05.02.2017 02:00 22,9 C 2,8 C 56 % 95 % 1004,3 hPa 0,2 l/m 5,4 km/h (1 Bft) S-SW 0,00 h 0,0 UV-I 0 W/m 2,1 C 2,3 C 10,5 km/h (2 Bft)
05.02.2017 03:00 22,8 C 2,6 C 56 % 95 % 1004,6 hPa 0,4 l/m 5,6 km/h (1 Bft) SW 0,00 h 0,0 UV-I 0 W/m 1,9 C 2,2 C 10,1 km/h (2 Bft)
05.02.2017 04:00 22,7 C 2,5 C 56 % 96 % 1004,8 hPa 0,0 l/m 5,2 km/h (1 Bft) SW 0,00 h 0,0 UV-I 0 W/m 2,0 C 2,0 C 10,1 km/h (2 Bft)
05.02.2017 05:00 22,7 C 2,6 C 56 % 96 % 1005,0 hPa 0,2 l/m 4,8 km/h (1 Bft) SW 0,00 h 0,0 UV-I 0 W/m 2,0 C 2,0 C 9,4 km/h (2 Bft)
05.02.2017 06:00 22,6 C 2,6 C 56 % 96 % 1005,3 hPa 0,0 l/m 4,2 km/h (1 Bft) SW 0,00 h 0,0 UV-I 0 W/m 2,0 C 2,4 C 8,3 km/h (2 Bft)
05.02.2017 07:00 22,6 C 2,4 C 57 % 96 % 1005,7 hPa 0,0 l/m 2,6 km/h (1 Bft) SW 0,00 h 0,0 UV-I 5 W/m 1,8 C 2,4 C 5,7 km/h (1 Bft)
05.02.2017 08:00 22,7 C 2,3 C 57 % 95 % 1005,9 hPa 0,0 l/m 2,6 km/h (1 Bft) SW 0,00 h 0,0 UV-I 19 W/m 1,6 C 2,1 C 5,2 km/h (1 Bft)
05.02.2017 09:00 22,9 C 2,5 C 56 % 96 % 1005,8 hPa 0,0 l/m 1,4 km/h (1 Bft) S 0,00 h 0,6 UV-I 64 W/m 1,9 C 2,4 C 3,5 km/h (1 Bft)
05.02.2017 10:00 23,2 C 3,9 C 56 % 92 % 1005,6 hPa 0,0 l/m 1,5 km/h (1 Bft) S 0,85 h 1,0 UV-I 310 W/m 2,7 C 3,8 C 3,6 km/h (1 Bft)
05.02.2017 11:00 23,0 C 5,0 C 55 % 83 % 1005,0 hPa 0,0 l/m 1,5 km/h (1 Bft) S 1,00 h 1,4 UV-I 384 W/m 2,3 C 5,0 C 3,4 km/h (1 Bft)
05.02.2017 12:00 22,7 C 5,2 C 54 % 80 % 1004,6 hPa 0,0 l/m 0,3 km/h (0 Bft) W 0,83 h 1,5 UV-I 278 W/m 2,0 C 5,2 C 1,0 km/h (0 Bft)
05.02.2017 13:00 22,6 C 4,9 C 53 % 78 % 1004,4 hPa 0,0 l/m 0,0 km/h (0 Bft) N 0,23 h 1,2 UV-I 162 W/m 1,5 C 4,9 C 0,0 km/h (0 Bft)
05.02.2017 14:00 22,5 C 5,4 C 51 % 76 % 1004,3 hPa 0,0 l/m 0,2 km/h (0 Bft) O-NO 0,73 h 1,0 UV-I 220 W/m 1,5 C 5,4 C 0,4 km/h (0 Bft)
05.02.2017 15:00 22,2 C 5,9 C 46 % 72 % 1004,0 hPa 0,0 l/m 0,0 km/h (0 Bft) N 0,32 h 0,6 UV-I 147 W/m 1,2 C 5,9 C 0,0 km/h (0 Bft)
05.02.2017 16:00 22,8 C 5,1 C 47 % 77 % 1004,1 hPa 0,0 l/m 0,3 km/h (0 Bft) O-NO 0,00 h 0,0 UV-I 55 W/m 1,4 C 5,1 C 0,8 km/h (0 Bft)
05.02.2017 17:00 22,9 C 3,8 C 47 % 81 % 1004,6 hPa 0,0 l/m 0,0 km/h (0 Bft) N 0,00 h 0,0 UV-I 5 W/m 0,8 C 3,8 C 0,0 km/h (0 Bft)
05.02.2017 18:00 23,0 C 2,0 C 49 % 84 % 1005,3 hPa 0,0 l/m 0,0 km/h (0 Bft) N 0,00 h 0,0 UV-I 0 W/m -0,4 C 2,0 C 0,0 km/h (0 Bft)
05.02.2017 19:00 23,2 C 0,9 C 51 % 88 % 1005,4 hPa 0,0 l/m 0,0 km/h (0 Bft) N 0,00 h 0,0 UV-I 0 W/m -0,8 C 0,9 C 0,0 km/h (0 Bft)
05.02.2017 20:00 23,1 C 0,0 C 51 % 89 % 1005,7 hPa 0,0 l/m 0,0 km/h (0 Bft) N 0,00 h 0,0 UV-I 0 W/m -1,6 C 0,0 C 0,0 km/h (0 Bft)
05.02.2017 21:00 23,5 C -0,7 C 52 % 91 % 1006,0 hPa 0,0 l/m 0,0 km/h (0 Bft) N 0,00 h 0,0 UV-I 0 W/m -2,0 C -0,7 C 0,0 km/h (0 Bft)
05.02.2017 22:00 23,9 C -1,2 C 52 % 93 % 1006,4 hPa 0,0 l/m 0,0 km/h (0 Bft) N 0,00 h 0,0 UV-I 0 W/m -2,3 C -1,2 C 0,0 km/h (0 Bft)
05.02.2017 23:00 23,8 C -1,4 C 52 % 93 % 1006,6 hPa 0,0 l/m 0,0 km/h (0 Bft) N 0,00 h 0,0 UV-I 0 W/m -2,3 C -1,4 C 0,0 km/h (0 Bft)
Min-Datum _ 30.01.17 30.01.17 05.02.17 05.02.17 04.02.17 - 30.01.17 - - - - 30.01.17 30.01.17 30.01.17
_ Min-Zeit 05:33 06:39 15:03 15:25 17:13 - 00:00 - - - - 06:39 06:39 00:00
Minimum _ 21,8 C -11,6 C 40 % 68 % 1002,5 hPa - 0,0 km/h (0 Bft) - - - - -13,0 C -11,6 C 0,0 km/h (0 Bft)
Max-Datum _ 02.02.17 05.02.17 04.02.17 04.02.17 30.01.17 30.01.17 30.01.17 - 30.01.17 05.02.17 05.02.17 05.02.17 05.02.17 30.01.17
_ Max-Zeit 15:55 15:19 12:29 10:28 00:04 18:47 19:34 - 10:17 12:31 11:51 10:45 15:19 20:04
Maximum _ 24,1 C 6,3 C 59 % 98 % 1026,3 hPa 0,6 l/m 17,7 km/h
S (3 Bft)
- 0,03 h 1,8 UV-I 561 W/m 3,7 C 6,3 C 27,4 km/h
S (4 Bft)
Durchschnitt _ 22,9 C 0,1 C 53 % 92 % 1013,3 hPa #4,6 l/m 1,0 km/h (0 Bft) S #13:24 h 0,8 UV-I 94 W/m -1,0 C 0,0 C 1,9 km/h (1 Bft)